STARLINK-3086, 49178

Orbit data source: Space-Track

STARLINK-3086, 49178 is a payload satellite owned by SpaceX/Seattle (US) in LEO that was launched on Tue, 14 Sep 2021 UTC via an FALCON 9 launch vehicle from the Air Force Western Test Range (AFWTR). Payload-class satellites include a variety of spacecraft equipped with specific instruments for various scientific and technological missions. These include communications satellites like Starlink; space stations such as the ISS; scientific satellites like the Hubble; Earth observation satellites from companies like Planet Labs, Umbra, and HawkEye 360; GPS; miniature CubeSats for education and research; and military/defense satellites.

Loading next visibility...
Identifier
49178, 2021-082BA
Orbit
LEO
Country
Flag of USUS
Related business
Manufacturer
SpaceX/Seattle
Mission
Operational Commercial Communications
Bus & Motor
STARLINK, Unknown motor
Mass
297 kg wet, ~275 kg dry
Launch date (UTC)
2021-09-14 (4 years ago)
Launch vehicle
FALCON 9
Launch site
Air Force Western Test Range (AFWTR)
Object type
Payload
Rocket body
Debris
Shape & HBR
Box + 1 Pan, 10.1 m
Radar Cross Section
13.562 m², Large (>1 m²)

Expand to show TLE details & history
Last TLE update: 16 hours ago

TLE from 16 hours ago
0 STARLINK-3086
1 49178U 21082BA  25286.47901952  .00001221  00000-0  11013-3 0  9997
2 49178  69.9973 305.6127 0003161 267.5292  92.5505 14.98320631225082
Epoch: 2025-10-13T11:29Z
TLE epoch observation values (Epoch: 2025-10-13T11:29:47.286Z)
Latitude
-0.00004°
Longitude
110.88445°
Altitude
574.607 km
Speed
7.574 km/s
True Right ascension
20h 22m 27s
True Declination
0° 00' 00"
Sunlit
Object was in daylight at epoch
Visualization orbit readout
Latitude
Unknown
Longitude
Unknown
Altitude
Unknown
Speed
Unknown
Apparent Right ascension
Unknown
Apparent Declination
Unknown
Sunlit
N/A
Visualization observer readout
Local Sidereal Time
22:30:30
Azimuth
Unknown
Elevation
Unknown
Doppler factor
Unknown
Orbital elements
Apogee altitude
572.23 km
Perigee altitude
567.837 km
Semi-major axis
6,948.17 km
Eccentricity
0.00032
Inclination
69.9973°
RAAN
305.6127°
Arg. of periapsis
267.5292°
True anomaly
92.58669°
Mean anomaly
92.5505°
Eccentric anomaly
92.56859°
Mean motion
3.74746 °/min
Orbital period
96.06 mins
BSTAR
0.00011013
Loading maneuver chart data...
Computing Atmospheric mass density...
Loading historical data...
Loading historical data...
Loading historical data...
Loading historical data...
Loading historical data...
Loading historical data...
Loading historical data...

Documentation

Showing up to 5 results
|